TimeMST,TemperatureF,Dew PointF,Humidity,Sea Level PressureIn,VisibilityMPH,Wind Direction,Wind SpeedMPH,Gust SpeedMPH,PrecipitationIn,Events,Conditions,WindDirDegrees,DateUTC
12:53 AM,34.0,28.0,79,30.12,10.0,Calm,Calm,-,N/A,,Clear,0,2012-11-07 07:53:00
1:53 AM,34.0,28.0,79,30.11,10.0,Calm,Calm,-,N/A,,Clear,0,2012-11-07 08:53:00
2:53 AM,30.9,26.1,82,30.09,10.0,Calm,Calm,-,N/A,,Clear,0,2012-11-07 09:53:00
3:53 AM,30.0,26.1,85,30.08,10.0,Calm,Calm,-,N/A,,Clear,0,2012-11-07 10:53:00
5:53 AM,30.0,26.1,85,30.12,10.0,WSW,5.8,-,N/A,,Clear,240,2012-11-07 12:53:00
6:53 AM,30.9,27.0,85,30.12,10.0,SSW,5.8,-,N/A,,Clear,200,2012-11-07 13:53:00
7:53 AM,39.0,28.9,67,30.11,10.0,WNW,5.8,-,N/A,,Clear,290,2012-11-07 14:53:00
8:53 AM,48.9,30.9,50,30.08,10.0,West,8.1,-,N/A,,Clear,270,2012-11-07 15:53:00
9:53 AM,53.1,30.9,43,30.05,10.0,West,10.4,-,N/A,,Clear,270,2012-11-07 16:53:00
10:53 AM,61.0,32.0,34,29.99,10.0,WNW,8.1,-,N/A,,Clear,300,2012-11-07 17:53:00
11:53 AM,66.9,32.0,27,29.94,10.0,WNW,4.6,-,N/A,,Clear,300,2012-11-07 18:53:00
12:53 PM,72.0,30.9,22,29.90,10.0,Calm,Calm,-,N/A,,Clear,0,2012-11-07 19:53:00
1:53 PM,73.9,30.0,20,29.86,10.0,SE,6.9,-,N/A,,Clear,140,2012-11-07 20:53:00
2:53 PM,75.0,28.9,18,29.85,10.0,SE,9.2,-,N/A,,Clear,140,2012-11-07 21:53:00
4:53 PM,62.1,32.0,32,29.86,10.0,ESE,9.2,-,N/A,,Clear,110,2012-11-07 23:53:00
5:53 PM,52.0,30.0,43,29.88,10.0,ESE,3.5,-,N/A,,Clear,120,2012-11-08 00:53:00
6:53 PM,55.0,30.0,38,29.87,10.0,ENE,4.6,-,N/A,,Clear,70,2012-11-08 01:53:00
7:53 PM,46.0,28.0,50,29.86,10.0,ENE,4.6,-,N/A,,Clear,70,2012-11-08 02:53:00
8:53 PM,43.0,28.9,58,29.84,10.0,Calm,Calm,-,N/A,,Clear,0,2012-11-08 03:53:00
9:53 PM,39.0,28.0,65,29.82,10.0,Calm,Calm,-,N/A,,Clear,0,2012-11-08 04:53:00
10:53 PM,35.1,27.0,72,29.81,10.0,SW,4.6,-,N/A,,Clear,220,2012-11-08 05:53:00
11:53 PM,34.0,27.0,75,29.79,10.0,SSW,6.9,-,N/A,,Clear,210,2012-11-08 06:53:00